Regional Weather Roundup
Issued by NWS Jackson, KY

Home | Current Version | Previous Version | Text Only | Print | Product List | Glossary Off
Versions: 1 2 3 4 5 6 7 8 9 10 11 12 13 14 15 16 17 18 19 20 21 22 23 24 25 26 27 28 29 30 31 32 33 34 35 36 37 38 39 40 41 42 43 44 45 46 47 48 49 50

000
ASUS43 KJKL 042310
RWRJKL

EAST KENTUCKY HOURLY WEATHER ROUNDUP
NATIONAL WEATHER SERVICE JACKSON KY
700 PM EDT MON MAY 04 2015

NOTE: "FAIR" INDICATES FEW OR NO CLOUDS BELOW 12,000 FEET WITH
NO SIGNIFICANT WEATHER AND/OR OBSTRUCTIONS TO VISIBILITY.

* THESE REPORTS ARE NOT UNDER NWS QUALITY CONTROL AND MAY NOT
  REPORT WEATHER SUCH AS PRECIPITATION AND FOG.

KYZ079-080-083-085-087-088-110-112-115-119-120-050000
...EASTERN KENTUCKY...

CITY           SKY/WX    TMP DP  RH WIND       PRES   REMARKS
JACKSON        SUNNY     79  48  33 CALM      30.22S
LONDON         SUNNY     81  44  27 SW5       30.21S
SOMERSET*      MOSUNNY   77  46  33 W7        30.22S
MONTICELLO*    SUNNY     80  52  37 W6        30.24S
MIDDLESBORO*   SUNNY     78  50  37 S6        30.23S
HARLAN APT*    CLEAR     77  43  29 W5        30.24S
HAZARD APT*    CLEAR     79  46  31 W5        30.22
BLACK MTN*       N/A     64  46  52 SW5         N/A
PIKEVILLE APT* MOSUNNY   77  48  36 CALM      30.22F
BIG SANDY*     PTCLDY    79  49  35 CALM      30.21F
MOREHEAD APT*  MOCLDY    79  52  38 W6G13     30.22S
$$

KYZ035-036-041-042-044-050-067-078-099-050000
...CENTRAL KENTUCKY...

CITY           SKY/WX    TMP DP  RH WIND       PRES   REMARKS
MT STERLING*   MOSUNNY   77  54  44 SW5       30.21S
FLEMING/MASON* MOSUNNY   75  57  53 S6        30.20S
DANVILLE*      MOSUNNY   77  54  44 SW5       30.21S
RICHMOND*      SUNNY     77  52  41 SW7       30.20F
LEXINGTON      MOSUNNY   77  54  44 SW8       30.19S
FRANKFORT      PTSUNNY   79  55  43 S8        30.16F
$$

KYZ091>093-OHZ055-061-077-WVZ005-015-034-035-042-050000
...SOUTHERN OHIO/WEST VIRGINIA...

CITY           SKY/WX    TMP DP  RH WIND       PRES   REMARKS
COVINGTON      CLOUDY    77  57  50 SW6       30.16S
COLUMBUS       RAIN      70  59  68 NW20G25   30.18R
DAYTON         CLOUDY    74  58  57 W10       30.18R
WILMINGTON     PTSUNNY   75  55  49 W7        30.17S
HUNTINGTON     MOSUNNY   80  47  31 W6        30.17S
CHARLESTON     MOSUNNY   81  46  29 W8        30.18S
PINEVILLE*     MOSUNNY   79  50  35 MISG      30.27F
BECKLEY        MOSUNNY   75  43  31 W7        30.25F
BLUEFIELD      CLOUDY    75  41  29 W8        30.29S
$$

VAZ002-007-008-TNZ017-027-036-066-071-050000
...SOUTHWEST VIRGINIA/EAST TENNESSEE...

CITY           SKY/WX    TMP DP  RH WIND       PRES   REMARKS
WISE*          SUNNY     73  37  27 SW8       30.29F
JONESVILLE*    CLEAR     79  46  31 W6        30.26S
ABINGDON*      SUNNY     77  44  31 W3        30.26F
BRISTOL        MOSUNNY   78  49  35 W7        30.24S
KNOXVILLE      MOSUNNY   79  46  31 W7        30.21F
OAK RIDGE      SUNNY     81  49  32 W5        30.22F
CROSSVILLE     MOSUNNY   76  46  34 SW6       30.26S
NASHVILLE      PTSUNNY   81  51  35 S9        30.19S
$$

...KEY TO REMARKS...
VSB - VISIBILITY IN MILES
WCI - WIND CHILL INDEX
HX  - HEAT INDEX

$$


USA.gov is the U.S. government's official web portal to all federal, state and local government web resources and services.